This demonstration page uses our WeatherBlox Daily Observations layout. Learn more.

Left ArrowRight Arrow

41.55636, -103.73856

Hourly Observations for October 19, 2018

Temp ( °F °C ) Dew Point ( °F °C ) Humidity (%) Winds ( mph kmh ) Pressure ( in mb ) Visibility ( mi km ) Precip ( " mm )
12:58 am 00:58 Mostly Clear 43 6.3 33 0.4 66 66 WNW 14 22 30.07 1018 10 16 N/A
1:58 am 01:58 Clear 44 6.5 33 0.4 65 65 WNW 15 24 30.06 1018 10 16 N/A
2:58 am 02:58 Clear 45 7.1 32 0.2 62 62 WNW 16 26 30.06 1018 10 16 N/A
3:58 am 03:58 Clear 45 7.3 32 undefined 60 60 WNW 15 24 30.07 1018 10 16 N/A
4:58 am 04:58 Clear 43 6.2 31 -0.3 63 63 NW 13 20 30.11 1020 10 16 N/A
5:58 am 05:58 Clear 45 7 32 undefined 61 61 NW 16 26 30.14 1021 10 16 N/A
6:58 am 06:58 Clear 43 6.3 32 -0.2 63 63 NW 16 26 30.18 1022 10 16 N/A
7:58 am 07:58 Sunny 44 6.9 32 undefined 62 62 NW 20 31 30.23 1024 10 16 N/A
8:58 am 08:58 Sunny 50 9.9 33 0.3 52 52 NNW 17 28 30.25 1024 10 16 N/A
9:58 am 09:58 Sunny 56 13.2 28 -2.4 34 34 NNW 22 35 30.26 1025 10 16 N/A
10:58 am 10:58 Sunny 58 14.7 26 -3.3 29 29 N 21 33 30.27 1025 10 16 N/A
11:58 am 11:58 Sunny 61 16 24 -4.5 24 24 N 25 41 30.28 1025 10 16 N/A
12:58 pm 12:58 Sunny 61 16.3 25 -4 25 25 N 18 30 30.27 1025 10 16 N/A
1:58 pm 13:58 Sunny 63 17.1 22 -5.3 21 21 N 20 31 30.26 1025 10 16 N/A
2:58 pm 14:58 Sunny 62 16.9 21 -5.9 21 21 N 17 28 30.26 1025 10 16 N/A
3:58 pm 15:58 Sunny 61 16.3 22 -5.8 22 22 N 18 30 30.26 1025 10 16 N/A
4:58 pm 16:58 Sunny 60 15.3 22 -5.3 24 24 N 14 22 30.28 1025 10 16 N/A
5:58 pm 17:58 Sunny 52 11.3 24 -4.6 33 33 N 7 11 30.30 1026 10 16 N/A
6:58 pm 18:58 Clear 45 7.2 26 -3.5 47 47 N 8 13 30.35 1028 10 16 N/A
7:58 pm 19:58 Clear 43 5.9 26 -3.4 52 52 N 7 11 30.37 1028 10 16 N/A
8:58 pm 20:58 Clear 46 7.7 23 -4.9 41 41 NW 5 7 30.35 1028 10 16 N/A
9:58 pm 21:58 Clear 39 3.9 26 -3.2 60 60 NNW 7 11 30.36 1028 10 16 N/A
10:58 pm 22:58 Clear 39 3.9 26 -3.1 61 61 NW 6 9 30.34 1028 10 16 N/A
11:58 pm 23:58 Clear 37 3 27 -2.7 67 67 W 9 15 30.37 1028 10 16 N/A

Powered by AerisWeather